Estación Meteorológica Peña el Pijo (Robertgarden) [ 07/23/19 00:06:48 CEST ]

Fecha Hora Presion(HPa) Temp (°C) Humedad % Rocio (°C) Viento ( m/s) Direccion Lluvia 1Hora(mm) Lluvia 24H(mm) LLuvia Total(mm)
2019-Jul-08 01:08:42 1007.400 - - - - NNW     342.62
2019-Jul-08 02:08:48 1007.700 - - - - NNW     342.62
2019-Jul-08 03:09:26 1007.500 - - - - NNW     342.62
2019-Jul-08 04:09:37 1007.200 - - - - NNW     342.62
2019-Jul-08 05:14:49 1006.900 - - - - NNW     342.62
2019-Jul-08 06:10:49 1006.600 - - - - NNW     342.62
2019-Jul-08 07:09:36 1007.200 - - - - NNW     342.62
2019-Jul-08 08:09:23 1007.100 - - - - NNW     342.62
2019-Jul-08 09:09:32 1007.600 - - - - NNW     342.62
2019-Jul-08 10:09:26 1007.200 - - - - NNW     342.62
2019-Jul-08 11:08:51 1007.000 - - - - NNW     342.62
2019-Jul-08 12:09:06 1006.900 - - - - NNW     342.62
2019-Jul-08 13:08:56 1006.600 - - - - NNW     342.62
2019-Jul-08 14:09:22 1006.200 - - - - NNW     342.62
2019-Jul-08 15:09:35 1005.500 - - - - NNW     342.62
2019-Jul-08 16:09:20 1005.000 - - - - NNW     342.62
2019-Jul-08 17:09:00 1004.900 - - - - NNW     342.62
2019-Jul-08 18:09:04 1004.800 - - - - NNW     342.62
2019-Jul-08 19:09:20 1004.900 - - - - NNW     342.62
2019-Jul-08 20:09:24 1005.500 - - - - NNW     342.62
2019-Jul-08 21:09:22 1006.200 - - - - NNW     342.62
2019-Jul-08 22:08:52 1006.900 - - - - NNW     342.62
2019-Jul-08 23:08:53 1008.200 - - - - NNW     342.62

Temperatura Máxima:    Temperatura Mínima:
Presión Máxima:1008.200 Hpa    Presión Mínima:1004.800 Hpa


Volver